QPF
0.02 0.02 0.02 0.01 0.01 0.01 0.01 0.01 0.01 0.01 0.01 0.00 0.00 0.00 0.00 0.00 0.00 0.01 0.01 0.01 0.02 0.03 0.03 0.04 0.04 0.04 0.04 0.03 0.03 0.03 0.03 0.03 0.02 0.02 0.02 0.03 0.03 0.03 0.03 0.02 0.01 0.02 0.02
0.02 0.02 0.02 0.02 0.01 0.01 0.01 0.01 0.01 0.02 0.01 0.00 0.00 0.00 0.00 0.00 0.00 0.00 0.00 0.01 0.01 0.02 0.03 0.04 0.04 0.03 0.04 0.04 0.04 0.03 0.03 0.03 0.02 0.02 0.02 0.02 0.02 0.03 0.04 0.03 0.02 0.01 0.02
0.02 0.03 0.03 0.02 0.01 0.01 0.01 0.01 0.01 0.02 0.02 0.00 0.00 0.00 0.00 0.00 0.00 0.00 0.00 0.00 0.01 0.01 0.01 0.03 0.04 0.03 0.03 0.04 0.04 0.04 0.03 0.02 0.02 0.02 0.02 0.03 0.03 0.03 0.03 0.05 0.04 0.03 0.02
0.02 0.02 0.03 0.03 0.02 0.02 0.01 0.01 0.01 0.01 0.01 0.01 0.00 0.00 0.00 0.00 0.00 0.00 0.00 0.00 0.00 0.01 0.01 0.01 0.02 0.03 0.03 0.03 0.03 0.04 0.03 0.03 0.02 0.03 0.02 0.02 0.03 0.03 0.03 0.04 0.05 0.05 0.04
0.02 0.03 0.03 0.03 0.03 0.03 0.02 0.01 0.01 0.01 0.01 0.01 0.00 0.00 0.00 0.00 0.00 0.00 0.00 0.00 0.00 0.00 0.00 0.01 0.01 0.02 0.03 0.03 0.03 0.04 0.03 0.03 0.03 0.03 0.02 0.02 0.02 0.02 0.03 0.04 0.04 0.05 0.05
0.02 0.03 0.03 0.04 0.04 0.04 0.03 0.02 0.01 0.01 0.01 0.01 0.01 0.00 0.00 0.00 0.00 0.00 0.00 0.00 0.00 0.00 0.00 0.00 0.01 0.01 0.02 0.03 0.03 0.04 0.04 0.04 0.03 0.03 0.02 0.02 0.01 0.01 0.02 0.02 0.03 0.03 0.04
0.03 0.04 0.04 0.05 0.05 0.05 0.03 0.03 0.02 0.01 0.01 0.01 0.01 0.01 0.01 0.00 0.00 0.00 0.00 0.00 0.00 0.00 0.00 0.00 0.00 0.01 0.01 0.02 0.03 0.04 0.05 0.05 0.04 0.03 0.02 0.02 0.01 0.01 0.01 0.01 0.02 0.02 0.03
0.05 0.04 0.04 0.05 0.05 0.05 0.05 0.03 0.02 0.01 0.01 0.01 0.01 0.01 0.01 0.01 0.00 0.00 0.00 0.00 0.00 0.00 0.00 0.00 0.01 0.01 0.01 0.02 0.03 0.03 0.05 0.05 0.05 0.04 0.02 0.02 0.02 0.01 0.02 0.02 0.02 0.02 0.02
0.06 0.05 0.04 0.04 0.05 0.07 0.08 0.05 0.02 0.02 0.01 0.01 0.01 0.01 0.01 0.00 0.00 0.00 0.00 0.00 0.00 0.00 0.00 0.01 0.01 0.01 0.01 0.02 0.02 0.03 0.04 0.05 0.05 0.04 0.03 0.02 0.02 0.02 0.02 0.02 0.02 0.02 0.02
0.06 0.07 0.06 0.05 0.04 0.04 0.05 0.06 0.04 0.02 0.02 0.01 0.01 0.01 0.01 0.00 0.00 0.00 0.00 0.00 0.00 0.00 0.00 0.01 0.01 0.01 0.01 0.02 0.02 0.03 0.04 0.05 0.05 0.05 0.04 0.03 0.03 0.02 0.02 0.02 0.02 0.02 0.02
0.06 0.07 0.07 0.06 0.05 0.05 0.04 0.03 0.03 0.03 0.02 0.02 0.01 0.01 0.01 0.01 0.00 0.00 0.00 0.00 0.01 0.01 0.01 0.01 0.01 0.01 0.02 0.02 0.03 0.03 0.04 0.05 0.05 0.06 0.06 0.05 0.04 0.03 0.03 0.03 0.03 0.02 0.02
0.08 0.07 0.08 0.07 0.06 0.07 0.07 0.05 0.03 0.02 0.02 0.02 0.01 0.01 0.01 0.01 0.01 0.01 0.00 0.01 0.01 0.01 0.01 0.01 0.01 0.01 0.02 0.03 0.03 0.04 0.04 0.05 0.06 0.06 0.06 0.06 0.05 0.04 0.03 0.03 0.03 0.02 0.02
0.07 0.08 0.08 0.07 0.05 0.05 0.07 0.08 0.06 0.03 0.02 0.02 0.02 0.01 0.01 0.01 0.00 0.01 0.00 0.01 0.01 0.01 0.01 0.02 0.02 0.02 0.03 0.03 0.03 0.04 0.04 0.04 0.05 0.06 0.05 0.05 0.05 0.04 0.03 0.03 0.03 0.02 0.02
0.05 0.07 0.08 0.07 0.05 0.04 0.04 0.06 0.07 0.07 0.05 0.03 0.02 0.02 0.01 0.01 0.01 0.01 0.01 0.01 0.01 0.01 0.02 0.02 0.03 0.03 0.06 0.04 0.03 0.03 0.03 0.03 0.03 0.04 0.05 0.04 0.04 0.03 0.03 0.03 0.04 0.03 0.03
0.06 0.07 0.08 0.07 0.06 0.05 0.04 0.04 0.04 0.05 0.05 0.04 0.03 0.02 0.02 0.01 0.01 0.01 0.01 0.01 0.01 0.01 0.02 0.02 0.03 0.03 0.05 0.05 0.04 0.03 0.02 0.04 0.03 0.03 0.03 0.03 0.03 0.03 0.03 0.03 0.04 0.03 0.03
0.06 0.06 0.07 0.08 0.07 0.06 0.05 0.04 0.04 0.04 0.04 0.04 0.04 0.04 0.02 0.01 0.01 0.01 0.01 0.01 0.02 0.02 0.02 0.02 0.02 0.03 0.04 0.05 0.06 0.04 0.04 0.04 0.04 0.03 0.02 0.02 0.02 0.02 0.02 0.03 0.03 0.03 0.03
0.07 0.06 0.07 0.08 0.07 0.06 0.06 0.05 0.04 0.04 0.04 0.03 0.03 0.04 0.03 0.02 0.01 0.01 0.01 0.02 0.02 0.02 0.02 0.02 0.03 0.03 0.05 0.06 0.07 0.05 0.04 0.04 0.05 0.05 0.04 0.04 0.03 0.03 0.03 0.03 0.03 0.03 0.03
0.07 0.07 0.06 0.07 0.07 0.07 0.06 0.06 0.05 0.04 0.04 0.03 0.03 0.03 0.03 0.02 0.02 0.02 0.02 0.02 0.02 0.02 0.02 0.02 0.03 0.04 0.05 0.06 0.04 0.04 0.04 0.04 0.04 0.05 0.06 0.07 0.06 0.05 0.05 0.04 0.03 0.03 0.03
0.08 0.06 0.06 0.06 0.06 0.06 0.06 0.06 0.06 0.05 0.05 0.04 0.03 0.03 0.03 0.03 0.03 0.02 0.03 0.02 0.02 0.02 0.02 0.02 0.02 0.03 0.05 0.06 0.05 0.05 0.04 0.04 0.04 0.05 0.07 0.08 0.07 0.07 0.07 0.05 0.03 0.03 0.03
0.07 0.07 0.06 0.05 0.04 0.04 0.05 0.05 0.06 0.05 0.05 0.05 0.04 0.03 0.03 0.03 0.02 0.02 0.03 0.03 0.03 0.02 0.03 0.03 0.02 0.02 0.03 0.04 0.05 0.05 0.04 0.04 0.04 0.06 0.06 0.05 0.05 0.06 0.07 0.05 0.04 0.04 0.03
0.06 0.07 0.06 0.06 0.05 0.03 0.03 0.04 0.05 0.05 0.04 0.04 0.05 0.05 0.04 0.03 0.03 0.03 0.03 0.03 0.03 0.03 0.03 0.03 0.03 0.02 0.02 0.03 0.03 0.03 0.03 0.02 0.04 0.05 0.03 0.02 0.03 0.04 0.05 0.05 0.04 0.04 0.04
0.05 0.06 0.05 0.06 0.06 0.05 0.04 0.04 0.04 0.05 0.04 0.04 0.04 0.05 0.05 0.05 0.04 0.04 0.04 0.04 0.04 0.03 0.03 0.03 0.03 0.02 0.02 0.02 0.02 0.01 0.01 0.02 0.02 0.02 0.01 0.02 0.03 0.03 0.02 0.02 0.03 0.02 0.02
0.04 0.04 0.05 0.05 0.04 0.04 0.05 0.04 0.03 0.03 0.03 0.04 0.04 0.04 0.04 0.04 0.04 0.04 0.04 0.05 0.04 0.04 0.04 0.03 0.03 0.02 0.02 0.02 0.02 0.02 0.01 0.01 0.01 0.01 0.01 0.01 0.01 0.01 0.01 0.01 0.01 0.01 0.01
0.05 0.04 0.04 0.04 0.03 0.03 0.04 0.04 0.04 0.03 0.03 0.04 0.04 0.03 0.03 0.03 0.04 0.04 0.04 0.04 0.04 0.04 0.04 0.04 0.03 0.02 0.02 0.02 0.02 0.02 0.02 0.02 0.01 0.01 0.01 0.01 0.01 0.00 0.00 0.00 0.01 0.01 0.01
0.05 0.05 0.05 0.05 0.04 0.04 0.04 0.04 0.04 0.04 0.04 0.04 0.04 0.03 0.03 0.03 0.04 0.04 0.04 0.04 0.04 0.04 0.04 0.03 0.04 0.04 0.04 0.04 0.03 0.03 0.02 0.02 0.02 0.01 0.00 0.00 0.00 0.00 0.00 0.00 0.00 0.00 0.00
0.05 0.05 0.05 0.05 0.04 0.04 0.04 0.04 0.04 0.05 0.05 0.04 0.04 0.04 0.04 0.04 0.04 0.04 0.04 0.04 0.05 0.05 0.04 0.04 0.04 0.04 0.03 0.03 0.03 0.03 0.02 0.02 0.01 0.01 0.00 0.00 0.00 0.01 0.01 0.00 0.00 0.00 0.00
MSLP
1021.49 1021.83 1022.15 1022.44 1022.72 1023.01 1023.33 1023.67 1024.04 1024.43 1024.82 1025.19 1025.53 1025.81 1026.04 1026.22 1026.34 1026.44 1026.53 1026.63 1026.75 1026.90 1027.11 1027.36 1027.65 1027.97 1028.29 1028.61 1028.89 1029.12 1029.30 1029.43 1029.53 1029.61 1029.70 1029.81 1029.97 1030.17 1030.39 1030.62 1030.84 1031.02 1031.16
1021.71 1022.08 1022.42 1022.74 1023.07 1023.40 1023.75 1024.13 1024.54 1024.95 1025.37 1025.78 1026.14 1026.45 1026.70 1026.89 1027.02 1027.10 1027.16 1027.21 1027.28 1027.38 1027.54 1027.75 1028.02 1028.34 1028.67 1029.01 1029.32 1029.58 1029.79 1029.94 1030.05 1030.14 1030.23 1030.34 1030.49 1030.68 1030.90 1031.12 1031.34 1031.54 1031.69
1021.90 1022.28 1022.65 1023.02 1023.39 1023.78 1024.18 1024.60 1025.04 1025.49 1025.94 1026.38 1026.78 1027.13 1027.41 1027.62 1027.76 1027.83 1027.86 1027.86 1027.87 1027.91 1028.01 1028.17 1028.40 1028.68 1029.01 1029.35 1029.67 1029.96 1030.20 1030.38 1030.52 1030.63 1030.74 1030.86 1031.01 1031.19 1031.40 1031.62 1031.84 1032.04 1032.21
1022.06 1022.45 1022.86 1023.28 1023.70 1024.14 1024.59 1025.05 1025.52 1026.01 1026.50 1026.97 1027.41 1027.80 1028.13 1028.37 1028.53 1028.60 1028.62 1028.59 1028.54 1028.52 1028.55 1028.64 1028.81 1029.05 1029.34 1029.66 1029.99 1030.29 1030.56 1030.77 1030.95 1031.09 1031.22 1031.36 1031.52 1031.70 1031.90 1032.12 1032.34 1032.53 1032.70
1022.21 1022.62 1023.06 1023.51 1023.98 1024.46 1024.94 1025.44 1025.94 1026.45 1026.97 1027.48 1027.97 1028.41 1028.79 1029.08 1029.28 1029.38 1029.40 1029.35 1029.28 1029.20 1029.16 1029.18 1029.28 1029.46 1029.70 1029.99 1030.29 1030.60 1030.87 1031.12 1031.33 1031.50 1031.67 1031.83 1032.00 1032.18 1032.38 1032.59 1032.80 1032.99 1033.16
1022.36 1022.78 1023.24 1023.72 1024.22 1024.72 1025.22 1025.73 1026.25 1026.78 1027.32 1027.86 1028.39 1028.89 1029.34 1029.70 1029.96 1030.10 1030.15 1030.12 1030.03 1029.92 1029.83 1029.78 1029.81 1029.92 1030.10 1030.34 1030.61 1030.89 1031.17 1031.42 1031.65 1031.86 1032.05 1032.23 1032.42 1032.61 1032.81 1033.00 1033.20 1033.38 1033.55
1022.50 1022.93 1023.39 1023.88 1024.38 1024.89 1025.39 1025.90 1026.41 1026.94 1027.50 1028.07 1028.65 1029.21 1029.72 1030.15 1030.49 1030.70 1030.81 1030.81 1030.73 1030.62 1030.50 1030.41 1030.38 1030.42 1030.53 1030.71 1030.93 1031.18 1031.43 1031.68 1031.92 1032.14 1032.35 1032.55 1032.75 1032.94 1033.14 1033.32 1033.50 1033.67 1033.82
1022.63 1023.05 1023.51 1024.00 1024.49 1024.98 1025.46 1025.94 1026.44 1026.95 1027.51 1028.10 1028.71 1029.32 1029.90 1030.42 1030.83 1031.13 1031.30 1031.36 1031.32 1031.22 1031.10 1030.99 1030.93 1030.91 1030.97 1031.08 1031.24 1031.44 1031.66 1031.89 1032.12 1032.34 1032.56 1032.77 1032.97 1033.16 1033.35 1033.52 1033.68 1033.83 1033.97
1022.73 1023.15 1023.60 1024.07 1024.54 1024.99 1025.43 1025.88 1026.34 1026.84 1027.38 1027.98 1028.61 1029.26 1029.89 1030.47 1030.96 1031.33 1031.58 1031.71 1031.73 1031.68 1031.58 1031.47 1031.39 1031.35 1031.35 1031.42 1031.52 1031.67 1031.84 1032.04 1032.24 1032.45 1032.66 1032.87 1033.07 1033.26 1033.43 1033.59 1033.74 1033.87 1033.98
1022.79 1023.21 1023.66 1024.10 1024.54 1024.96 1025.36 1025.76 1026.18 1026.65 1027.17 1027.75 1028.38 1029.05 1029.71 1030.34 1030.89 1031.32 1031.64 1031.84 1031.93 1031.93 1031.87 1031.80 1031.72 1031.67 1031.65 1031.68 1031.74 1031.83 1031.96 1032.11 1032.29 1032.47 1032.67 1032.86 1033.05 1033.23 1033.39 1033.54 1033.67 1033.78 1033.88
1022.80 1023.23 1023.67 1024.11 1024.52 1024.91 1025.28 1025.64 1026.02 1026.44 1026.93 1027.49 1028.11 1028.77 1029.44 1030.08 1030.66 1031.14 1031.50 1031.76 1031.91 1031.97 1031.98 1031.94 1031.90 1031.86 1031.84 1031.84 1031.87 1031.93 1032.02 1032.13 1032.27 1032.42 1032.60 1032.77 1032.95 1033.11 1033.26 1033.39 1033.50 1033.59 1033.67
1022.73 1023.19 1023.65 1024.09 1024.49 1024.86 1025.21 1025.54 1025.89 1026.28 1026.74 1027.26 1027.84 1028.48 1029.12 1029.75 1030.33 1030.82 1031.22 1031.52 1031.72 1031.84 1031.91 1031.93 1031.93 1031.92 1031.92 1031.92 1031.93 1031.97 1032.02 1032.10 1032.20 1032.33 1032.47 1032.63 1032.78 1032.93 1033.07 1033.18 1033.26 1033.34 1033.39
1022.58 1023.08 1023.57 1024.03 1024.44 1024.82 1025.16 1025.48 1025.81 1026.18 1026.60 1027.09 1027.63 1028.22 1028.82 1029.42 1029.97 1030.45 1030.86 1031.18 1031.42 1031.60 1031.72 1031.80 1031.85 1031.88 1031.90 1031.92 1031.93 1031.95 1031.98 1032.03 1032.10 1032.20 1032.32 1032.45 1032.59 1032.71 1032.83 1032.92 1032.98 1033.03 1033.07
1022.34 1022.88 1023.41 1023.91 1024.35 1024.75 1025.11 1025.44 1025.77 1026.13 1026.53 1026.98 1027.48 1028.02 1028.58 1029.12 1029.63 1030.09 1030.48 1030.82 1031.08 1031.30 1031.47 1031.60 1031.70 1031.78 1031.84 1031.87 1031.89 1031.91 1031.92 1031.95 1032.00 1032.07 1032.16 1032.27 1032.38 1032.48 1032.57 1032.63 1032.67 1032.69 1032.70
1021.99 1022.59 1023.16 1023.70 1024.19 1024.62 1025.02 1025.38 1025.73 1026.09 1026.48 1026.91 1027.38 1027.87 1028.37 1028.86 1029.33 1029.76 1030.14 1030.47 1030.76 1031.00 1031.22 1031.39 1031.54 1031.66 1031.75 1031.81 1031.84 1031.86 1031.87 1031.88 1031.91 1031.95 1032.02 1032.09 1032.17 1032.24 1032.29 1032.32 1032.33 1032.32 1032.30
1021.55 1022.19 1022.80 1023.38 1023.92 1024.40 1024.83 1025.24 1025.62 1026.00 1026.40 1026.82 1027.27 1027.73 1028.19 1028.64 1029.07 1029.47 1029.84 1030.17 1030.47 1030.74 1030.99 1031.21 1031.39 1031.55 1031.66 1031.74 1031.79 1031.81 1031.82 1031.82 1031.83 1031.85 1031.88 1031.92 1031.96 1031.99 1032.00 1031.99 1031.96 1031.91 1031.85
1021.04 1021.69 1022.33 1022.94 1023.51 1024.04 1024.52 1024.97 1025.40 1025.81 1026.23 1026.66 1027.09 1027.54 1027.98 1028.40 1028.81 1029.19 1029.55 1029.89 1030.21 1030.50 1030.78 1031.03 1031.25 1031.44 1031.58 1031.68 1031.74 1031.77 1031.77 1031.77 1031.76 1031.75 1031.75 1031.75 1031.75 1031.74 1031.70 1031.65 1031.57 1031.47 1031.37
1020.47 1021.12 1021.76 1022.39 1022.99 1023.55 1024.08 1024.57 1025.04 1025.49 1025.93 1026.37 1026.82 1027.26 1027.69 1028.10 1028.50 1028.89 1029.25 1029.60 1029.94 1030.26 1030.56 1030.84 1031.09 1031.31 1031.48 1031.60 1031.67 1031.71 1031.72 1031.71 1031.69 1031.66 1031.63 1031.59 1031.54 1031.48 1031.39 1031.28 1031.15 1031.01 1030.86
1019.88 1020.50 1021.12 1021.75 1022.36 1022.94 1023.50 1024.03 1024.54 1025.02 1025.49 1025.96 1026.41 1026.85 1027.29 1027.71 1028.11 1028.50 1028.88 1029.25 1029.61 1029.96 1030.29 1030.60 1030.88 1031.12 1031.32 1031.46 1031.56 1031.62 1031.64 1031.63 1031.60 1031.56 1031.50 1031.43 1031.34 1031.22 1031.08 1030.92 1030.74 1030.54 1030.35
1019.31 1019.87 1020.46 1021.07 1021.68 1022.27 1022.85 1023.40 1023.93 1024.44 1024.94 1025.41 1025.88 1026.33 1026.78 1027.20 1027.62 1028.02 1028.42 1028.81 1029.20 1029.57 1029.93 1030.27 1030.58 1030.85 1031.08 1031.26 1031.39 1031.47 1031.51 1031.52 1031.49 1031.44 1031.37 1031.27 1031.14 1030.98 1030.80 1030.58 1030.35 1030.12 1029.88
1018.77 1019.28 1019.83 1020.40 1021.00 1021.59 1022.17 1022.74 1023.28 1023.80 1024.30 1024.79 1025.26 1025.72 1026.17 1026.61 1027.04 1027.46 1027.87 1028.28 1028.69 1029.09 1029.48 1029.85 1030.19 1030.49 1030.76 1030.98 1031.14 1031.26 1031.34 1031.37 1031.36 1031.31 1031.23 1031.11 1030.96 1030.77 1030.54 1030.30 1030.03 1029.76 1029.50
1018.30 1018.75 1019.26 1019.80 1020.37 1020.95 1021.52 1022.09 1022.63 1023.16 1023.66 1024.15 1024.62 1025.08 1025.53 1025.97 1026.41 1026.84 1027.27 1027.70 1028.12 1028.54 1028.95 1029.35 1029.72 1030.06 1030.36 1030.62 1030.83 1031.00 1031.11 1031.18 1031.20 1031.17 1031.09 1030.97 1030.80 1030.60 1030.35 1030.09 1029.80 1029.52 1029.25
1017.92 1018.33 1018.79 1019.30 1019.85 1020.41 1020.97 1021.52 1022.05 1022.57 1023.06 1023.54 1024.01 1024.46 1024.91 1025.36 1025.80 1026.24 1026.68 1027.11 1027.55 1027.98 1028.41 1028.82 1029.22 1029.58 1029.92 1030.22 1030.48 1030.70 1030.86 1030.97 1031.02 1031.02 1030.96 1030.84 1030.68 1030.47 1030.23 1029.96 1029.68 1029.40 1029.13
1017.66 1018.02 1018.46 1018.94 1019.46 1019.99 1020.53 1021.06 1021.58 1022.08 1022.56 1023.03 1023.49 1023.94 1024.38 1024.83 1025.27 1025.72 1026.16 1026.60 1027.04 1027.48 1027.90 1028.33 1028.74 1029.12 1029.49 1029.83 1030.13 1030.38 1030.59 1030.74 1030.83 1030.86 1030.83 1030.73 1030.59 1030.39 1030.17 1029.92 1029.66 1029.40 1029.16
1017.51 1017.86 1018.27 1018.73 1019.22 1019.72 1020.24 1020.74 1021.24 1021.72 1022.18 1022.64 1023.10 1023.55 1024.00 1024.44 1024.89 1025.34 1025.78 1026.22 1026.66 1027.09 1027.51 1027.93 1028.34 1028.73 1029.11 1029.46 1029.79 1030.08 1030.32 1030.51 1030.64 1030.70 1030.70 1030.64 1030.52 1030.36 1030.16 1029.94 1029.72 1029.51 1029.31
1017.52 1017.85 1018.24 1018.67 1019.13 1019.60 1020.08 1020.56 1021.03 1021.49 1021.95 1022.40 1022.86 1023.31 1023.77 1024.23 1024.69 1025.14 1025.59 1026.02 1026.45 1026.86 1027.26 1027.66 1028.05 1028.43 1028.81 1029.17 1029.50 1029.81 1030.07 1030.29 1030.44 1030.54 1030.57 1030.54 1030.46 1030.34 1030.18 1030.02 1029.84 1029.68 1029.54
Thickness
5611 5611 5611 5612 5612 5612 5612 5611 5611 5611 5610 5609 5609 5609 5608 5608 5608 5608 5608 5608 5609 5609 5610 5610 5610 5611 5611 5611 5612 5612 5612 5613 5614 5615 5615 5616 5617 5617 5618 5619 5619 5620 5620
5604 5604 5603 5603 5604 5604 5603 5604 5603 5603 5601 5600 5599 5599 5599 5599 5598 5598 5599 5599 5600 5600 5601 5601 5602 5602 5603 5603 5603 5603 5603 5604 5605 5606 5607 5608 5608 5609 5610 5610 5611 5611 5611
5597 5597 5596 5596 5596 5596 5595 5595 5595 5594 5592 5591 5590 5589 5590 5589 5589 5589 5589 5590 5590 5591 5592 5592 5593 5593 5593 5594 5594 5593 5594 5595 5596 5597 5598 5599 5600 5601 5601 5602 5602 5603 5603
5589 5589 5588 5588 5588 5588 5588 5587 5586 5585 5582 5581 5580 5579 5580 5580 5579 5579 5580 5580 5581 5581 5582 5582 5583 5583 5584 5584 5585 5585 5585 5586 5587 5588 5589 5590 5591 5591 5592 5593 5594 5594 5594
5581 5581 5581 5580 5580 5580 5579 5579 5577 5576 5573 5571 5570 5569 5569 5569 5569 5570 5570 5570 5571 5571 5572 5572 5573 5573 5574 5575 5575 5576 5576 5577 5577 5579 5580 5580 5581 5582 5583 5584 5585 5585 5586
5574 5574 5573 5573 5573 5572 5571 5570 5568 5567 5565 5563 5561 5558 5558 5558 5559 5560 5560 5561 5561 5562 5562 5563 5563 5564 5564 5565 5566 5566 5567 5568 5568 5569 5570 5571 5572 5573 5574 5574 5575 5575 5576
5566 5566 5566 5565 5565 5565 5563 5562 5560 5558 5555 5554 5552 5547 5546 5548 5549 5549 5550 5551 5552 5552 5553 5553 5554 5554 5555 5555 5556 5557 5558 5558 5559 5560 5560 5561 5562 5563 5564 5565 5566 5566 5566
5557 5558 5558 5557 5557 5556 5555 5554 5553 5550 5547 5547 5546 5541 5537 5537 5538 5539 5540 5541 5542 5543 5543 5544 5545 5545 5546 5546 5547 5547 5548 5549 5550 5550 5551 5552 5553 5554 5554 5555 5556 5556 5556
5548 5549 5550 5550 5549 5549 5548 5547 5547 5546 5542 5539 5540 5538 5534 5533 5528 5528 5530 5531 5532 5533 5534 5534 5535 5536 5536 5537 5537 5537 5538 5539 5540 5541 5541 5542 5543 5544 5545 5545 5545 5545 5546
5538 5539 5541 5541 5541 5540 5539 5539 5539 5539 5537 5533 5531 5531 5530 5529 5524 5520 5520 5521 5522 5523 5524 5525 5525 5526 5527 5527 5527 5527 5528 5529 5530 5531 5532 5533 5534 5534 5535 5534 5535 5535 5535
5528 5529 5530 5531 5531 5531 5531 5531 5530 5530 5530 5528 5525 5523 5520 5519 5518 5516 5512 5510 5511 5513 5515 5515 5516 5517 5517 5517 5517 5518 5518 5519 5520 5521 5522 5523 5524 5524 5524 5524 5524 5524 5525
5516 5518 5520 5521 5522 5522 5522 5522 5522 5522 5521 5521 5519 5518 5516 5514 5511 5508 5505 5502 5501 5502 5504 5505 5506 5507 5508 5508 5508 5508 5509 5509 5510 5510 5511 5512 5512 5512 5513 5513 5513 5513 5513
5506 5508 5509 5511 5512 5512 5512 5512 5512 5512 5512 5512 5511 5510 5510 5510 5508 5504 5500 5494 5491 5491 5493 5495 5496 5497 5498 5498 5499 5499 5499 5499 5499 5499 5500 5500 5500 5500 5500 5501 5501 5501 5502
5497 5498 5499 5500 5502 5502 5502 5502 5503 5503 5502 5502 5502 5501 5500 5500 5499 5498 5495 5489 5482 5480 5482 5484 5486 5487 5488 5488 5489 5489 5489 5489 5489 5488 5489 5489 5488 5488 5488 5488 5488 5489 5489
5486 5487 5488 5489 5491 5492 5492 5492 5493 5493 5493 5492 5492 5491 5491 5490 5490 5490 5488 5486 5480 5475 5474 5474 5474 5477 5477 5477 5477 5478 5478 5478 5478 5477 5477 5477 5476 5476 5476 5476 5476 5476 5476
5475 5476 5477 5478 5480 5481 5482 5482 5482 5482 5482 5482 5482 5481 5480 5480 5480 5479 5478 5476 5474 5471 5466 5464 5464 5465 5465 5465 5465 5466 5466 5466 5465 5465 5465 5465 5465 5465 5464 5464 5464 5464 5464
5464 5465 5466 5467 5469 5470 5471 5472 5472 5472 5472 5472 5471 5471 5470 5470 5469 5467 5466 5465 5463 5460 5456 5452 5452 5453 5453 5453 5453 5453 5453 5453 5453 5452 5453 5453 5453 5453 5452 5452 5452 5452 5452
5452 5454 5454 5456 5457 5458 5460 5461 5461 5461 5462 5462 5461 5461 5460 5459 5458 5457 5455 5454 5452 5450 5447 5443 5441 5440 5440 5440 5440 5439 5439 5439 5439 5439 5439 5440 5440 5440 5440 5440 5439 5439 5439
5440 5442 5443 5444 5446 5447 5448 5449 5450 5451 5451 5451 5451 5451 5449 5448 5447 5446 5444 5443 5440 5439 5437 5434 5431 5429 5427 5426 5426 5425 5425 5425 5425 5425 5425 5426 5425 5426 5426 5426 5425 5425 5425
5428 5430 5432 5433 5434 5435 5436 5437 5438 5439 5439 5439 5440 5439 5439 5438 5437 5435 5433 5431 5429 5426 5424 5422 5420 5417 5414 5413 5412 5411 5410 5410 5410 5410 5410 5411 5411 5411 5411 5411 5411 5410 5410
5417 5419 5420 5421 5422 5423 5425 5426 5426 5427 5427 5427 5427 5427 5427 5427 5426 5425 5423 5420 5418 5415 5412 5409 5407 5405 5403 5400 5399 5398 5396 5395 5395 5395 5395 5396 5397 5397 5396 5396 5396 5396 5397
5404 5406 5408 5409 5410 5411 5413 5415 5415 5414 5414 5415 5415 5415 5415 5414 5414 5413 5411 5410 5408 5405 5402 5398 5396 5394 5392 5390 5387 5385 5383 5381 5381 5381 5380 5381 5381 5381 5380 5380 5381 5382 5383
5392 5394 5395 5397 5398 5399 5401 5402 5403 5403 5402 5402 5402 5402 5401 5400 5400 5398 5397 5396 5395 5393 5392 5389 5386 5385 5382 5379 5375 5372 5370 5368 5368 5367 5366 5366 5366 5366 5366 5366 5366 5367 5368
5379 5381 5384 5385 5386 5387 5388 5390 5390 5390 5389 5390 5390 5389 5388 5387 5386 5385 5383 5381 5380 5379 5377 5376 5375 5373 5370 5367 5364 5361 5358 5354 5353 5352 5351 5350 5350 5350 5351 5352 5351 5352 5353
5367 5369 5371 5372 5373 5374 5375 5377 5378 5377 5376 5376 5376 5375 5375 5374 5373 5372 5370 5368 5366 5364 5362 5361 5360 5357 5355 5352 5349 5346 5343 5341 5339 5338 5336 5335 5335 5334 5335 5336 5336 5337 5337
5355 5356 5358 5359 5360 5361 5362 5364 5364 5364 5363 5362 5361 5360 5361 5360 5359 5358 5357 5355 5352 5350 5348 5346 5344 5341 5339 5336 5334 5332 5331 5328 5325 5323 5323 5320 5319 5318 5319 5321 5321 5321 5321